{"data":{"norad_id":60423,"epoch":"2026-09-15T13:47:03.350976Z","epoch_age_seconds":711750,"freshness":"AGED","line1":"1 60423U 24143B   26258.57434434 -.00000072  00000+0  00000+0 0  9994","line2":"2 60423  62.8936  41.9938 5640686 269.4595  29.3828  1.50425879 12961","mean_motion":1.50425879,"eccentricity":0.5640686,"inclination_deg":62.8936,"raan_deg":41.9938,"arg_perigee_deg":269.4595,"mean_anomaly_deg":29.3828,"bstar":0,"rev_number":1296,"period_min":957.28209106892,"perigee_km":7648.0068380199,"apogee_km":43945.953341119,"semimajor_km":32175.117089569,"source":"CELESTRAK","updated_at":"2026-09-23T09:00:20.608894Z"}}